TimeEST,TemperatureF,Dew PointF,Humidity,Sea Level PressureIn,VisibilityMPH,Wind Direction,Wind SpeedMPH,Gust SpeedMPH,PrecipitationIn,Events,Conditions,WindDirDegrees,DateUTC
12:51 AM,9.0,5.0,84,30.26,10.0,Calm,Calm,-,N/A,,Overcast,0,2011-12-24 05:51:00
1:51 AM,7.0,3.9,87,30.27,10.0,Calm,Calm,-,N/A,,Overcast,0,2011-12-24 06:51:00
2:51 AM,8.1,3.9,83,30.31,10.0,Calm,Calm,-,N/A,,Overcast,0,2011-12-24 07:51:00
3:51 AM,7.0,3.0,84,30.31,10.0,Calm,Calm,-,N/A,,Mostly Cloudy,0,2011-12-24 08:51:00
4:10 AM,6.8,3.2,85,30.22,10.0,NNW,3.5,-,N/A,,Scattered Clouds,340,2011-12-24 09:10:00
4:31 AM,6.8,3.2,85,30.22,10.0,Calm,Calm,-,N/A,,Mostly Cloudy,0,2011-12-24 09:31:00
4:51 AM,7.0,3.0,84,30.34,8.0,Calm,Calm,-,N/A,,Overcast,0,2011-12-24 09:51:00
5:20 AM,6.8,3.2,85,30.25,10.0,NNE,3.5,-,N/A,,Overcast,20,2011-12-24 10:20:00
5:51 AM,6.8,3.2,85,30.27,10.0,Calm,Calm,-,N/A,,Overcast,0,2011-12-24 10:51:00
6:51 AM,6.1,3.0,87,30.38,9.0,Calm,Calm,-,N/A,,Overcast,0,2011-12-24 11:51:00
7:21 AM,3.2,-0.4,85,30.28,10.0,Calm,Calm,-,N/A,,Scattered Clouds,0,2011-12-24 12:21:00
7:43 AM,1.4,-2.2,85,30.29,10.0,Calm,Calm,-,N/A,,Partly Cloudy,0,2011-12-24 12:43:00
7:51 AM,1.9,-2.0,83,30.41,10.0,Calm,Calm,-,N/A,,Clear,0,2011-12-24 12:51:00
8:51 AM,3.9,-0.0,84,30.44,10.0,Calm,Calm,-,N/A,,Clear,0,2011-12-24 13:51:00
9:34 AM,8.6,5.0,85,30.34,8.0,Calm,Calm,-,N/A,,Partly Cloudy,0,2011-12-24 14:34:00
9:51 AM,7.0,3.0,84,30.44,10.0,Calm,Calm,-,N/A,,Scattered Clouds,0,2011-12-24 14:51:00
10:08 AM,8.6,3.2,79,30.34,10.0,Calm,Calm,-,N/A,,Mostly Cloudy,0,2011-12-24 15:08:00
10:35 AM,10.4,3.2,73,30.34,10.0,Calm,Calm,-,N/A,,Partly Cloudy,0,2011-12-24 15:35:00
10:51 AM,10.0,3.9,76,30.45,10.0,Calm,Calm,-,N/A,,Partly Cloudy,0,2011-12-24 15:51:00
11:51 AM,10.9,5.0,77,30.45,10.0,Calm,Calm,-,N/A,,Clear,0,2011-12-24 16:51:00
12:51 PM,12.9,7.0,77,30.45,10.0,Calm,Calm,-,N/A,,Partly Cloudy,0,2011-12-24 17:51:00
1:51 PM,16.0,5.0,62,30.43,10.0,Calm,Calm,-,N/A,,Clear,0,2011-12-24 18:51:00
2:51 PM,15.1,5.0,64,30.44,10.0,Calm,Calm,-,N/A,,Clear,0,2011-12-24 19:51:00
3:51 PM,14.0,6.1,71,30.44,10.0,Calm,Calm,-,N/A,,Clear,0,2011-12-24 20:51:00
4:51 PM,6.1,3.9,91,30.45,10.0,Calm,Calm,-,N/A,,Clear,0,2011-12-24 21:51:00
5:51 PM,3.9,-0.9,80,30.43,10.0,Calm,Calm,-,N/A,,Clear,0,2011-12-24 22:51:00
6:51 PM,3.9,1.0,88,30.42,10.0,NE,4.6,-,N/A,,Clear,40,2011-12-24 23:51:00
7:51 PM,1.9,-0.9,88,30.44,10.0,NE,5.8,-,N/A,,Clear,50,2011-12-25 00:51:00
8:51 PM,1.0,-0.9,91,30.43,10.0,NNE,3.5,-,N/A,,Clear,30,2011-12-25 01:51:00
9:51 PM,-0.0,-4.0,83,30.44,10.0,Calm,Calm,-,N/A,,Clear,0,2011-12-25 02:51:00
10:51 PM,-0.9,-4.0,87,30.40,10.0,Calm,Calm,-,N/A,,Clear,0,2011-12-25 03:51:00
11:51 PM,-0.9,-6.0,79,30.38,8.0,Calm,Calm,-,N/A,,Clear,0,2011-12-25 04:51:00